Flag for Poland Weather past 2 weeks in Gorzów Wielkopolski, Poland

Now
62 °F

Partly sunny.


Feels Like: 62 °F
Forecast: 51 / 70 °F
Wind: 5 mph from Southwest

Location: Gorzow Wlkp

Current Time: Aug 20, 2014 at 3:11:13 PM

Latest Report: Aug 20, 2014 at 2:00 PM


Visibility: 31 mi

Pressure: 29.94 "Hg

Humidity: 57%

Dew point: 46 °F

Location of Gorzów WielkopolskiLocation

Historic Weather in Gorzów Wielkopolski — Graph

°F

Gorzów Wielkopolski temperature yesterday

Maximum temperature yesterday: 69 °F (at 4:00 PM)
Minimum temperature yesterday: 52 °F (at 6:00 AM)
Average temperature yesterday: 60 °F

Past Weeks' High & Low Weather Summary

 TemperatureHumidityPressure
High86 °F (Aug 9, 2:00 PM)98% (Aug 6, 7:00 AM)30.06 "Hg (Aug 6, 7:00 AM)
Low49 °F (Aug 20, 6:00 AM)36% (Aug 9, 1:00 PM)29.62 "Hg (Aug 14, 1:00 AM)
Average65 °F69%29.86 "Hg
* Reported Aug 5 1:00 PM — Aug 20 1:00 PM, Gorzów Wielkopolski, Weather by CustomWeather, © 2014

Note: Actual official high and low records may vary slightly from our data, if they occured in-between our weather recording intervals... More about our weather records

Advertising

Gorzów Wielkopolski weather history for previous 24 hours

 ConditionsComfort  
Time TempWeatherWind HumidityBarometerVisibility
1:00 PM
Aug 20
60 °FPartly sunny.6 mph60%29.94 "Hg31 mi
12:00 PM58 °FPartly sunny.6 mph68%29.94 "Hg31 mi
11:00 AM56 °FOvercast.5 mph74%29.94 "Hg31 mi
10:00 AM52 °FOvercast.5 mph79%29.94 "Hg31 mi
9:00 AM52 °FOvercast.3 mph84%29.92 "Hg31 mi
8:00 AM51 °FLow clouds.3 mph90%29.90 "Hg31 mi
7:00 AM50 °FLow clouds.3 mph94%29.88 "Hg19 mi
6:00 AM49 °FPassing clouds.3 mph96%29.88 "Hg19 mi
5:00 AM49 °FPassing clouds.2 mph95%29.87 "Hg19 mi
4:00 AM50 °FPassing clouds.3 mph95%29.86 "Hg25 mi
3:00 AM50 °FPassing clouds.2 mph95%29.85 "Hg31 mi
2:00 AM51 °FPassing clouds.2 mph94%29.84 "Hg31 mi
1:00 AM52 °FLight rain. Overcast.2 mph93%29.84 "Hg25 mi
12:00 AM53 °FLight rain. Overcast.3 mph88%29.85 "Hg16 mi
11:00 PM
Aug 19
58 °FOvercast.3 mph68%29.83 "Hg31 mi
10:00 PM59 °FOvercast.5 mph70%29.82 "Hg31 mi
9:00 PM62 °FPassing clouds.2 mph61%29.78 "Hg25 mi
8:00 PM64 °FPartly sunny.2 mph55%29.78 "Hg31 mi
7:00 PM66 °FPartly sunny.2 mph48%29.79 "Hg31 mi
6:00 PM68 °FScattered clouds.3 mph42%29.79 "Hg31 mi
5:00 PM69 °FScattered clouds.5 mph40%29.81 "Hg31 mi
4:00 PM69 °FPartly sunny.3 mph42%29.81 "Hg31 mi
3:00 PM65 °FPartly sunny.5 mph49%29.83 "Hg31 mi
Weather by CustomWeather, © 2014

See weather overviewHow to use our weather pages